Regional Weather Roundup
Issued by NWS

Home | Current Version | Previous Version | Graphics & Text | Print | Product List | Glossary On
Versions: 1 2 3 4 5 6 7 8 9 10 11 12 13 14 15 16 17 18 19 20 21 22 23 24 25 26 27 28 29 30 31 32 33 34 35 36 37 38 39 40 41 42 43 44 45 46 47 48 49 50
000
ASUS43 KLMK 051102
RWRKY
KENTUCKY REGIONAL WEATHER ROUNDUP
NATIONAL WEATHER SERVICE LOUISVILLE KY
600 AM EST THU MAR 05 2015

NOTE "FAIR" INDICATES FEW OR NO CLOUDS BELOW 12,000 FEET
WITH NO SIGNIFICANT WEATHER AND/OR OBSTRUCTIONS TO VISIBILITY.

KYZ001>023-026-027-061>063-070>075-051200-
WESTERN AND SOUTH CENTRAL KENTUCKY

CITY           SKY/WX    TMP DP  RH WIND       PRES   REMARKS
PADUCAH        CLOUDY    20   7  57 N18       30.35R WCI   5
HENDERSON      CLOUDY    19   7  58 N15       30.36R WCI   5
OWENSBORO      LGT SNOW  19  12  74 N8        30.34R WCI   9
HOPKINSVILLE   LGT SNOW  18  14  86 N10       30.28R FOG     WCI   6
BOWLING GREEN  LGT SNOW  21  17  84 N7        30.26R VSB 3/4 WCI  12
GLASGOW        NOT AVBL
$$

KYZ024-025-028>034-038-045-046-053-051200-
NORTH CENTRAL KENTUCKY

CITY           SKY/WX    TMP DP  RH WIND       PRES   REMARKS
LOUISVILLE/SDF LGT SNOW  20  16  84 N12       30.29R FOG     WCI   8
LOUISVILLE/LOU LGT SNOW  20  15  81 N9G18     30.29R WCI   9
FORT KNOX      LGT SNOW  18  15  87 N10       30.25S FOG     WCI   6
$$

KYZ035>037-039>044-047>052-055>060-089>105-051200-
NORTHEAST KENTUCKY

CITY           SKY/WX    TMP DP  RH WIND       PRES   REMARKS
LEXINGTON      CLOUDY    19  16  88 N15       30.23R FOG     WCI   5
COVINGTON      FLURRIES  19   8  62 N12       30.26S WCI   7
FRANKFORT      SNOW      18  14  84 N15G22    30.24R VSB 1/2 WCI   4
$$

KYZ054-064>069-076>088-106>120-051200-
SOUTHEAST KENTUCKY

CITY           SKY/WX    TMP DP  RH WIND       PRES   REMARKS
JACKSON        SNOW      25  22  88 VRB6      30.12R VSB 1/4 WCI  18
LONDON         LGT SNOW  26  21  81 N13       30.12R WCI  15
SOMERSET       NOT AVBL
MIDDLESBORO    NOT AVBL
MONTICELLO     LGT SNOW  25  23  91 N10G17    30.16R FOG     WCI  15
$$



USA.gov is the U.S. government's official web portal to all federal, state and local government web resources and services.